Орджоникидзе

Казахстан     52°13′03″N   61°16′49″E
темп.,
°C
ветер,
м/с
пор.,
м/с
влажн.,
%
обл.,
%
осадки,
мм/ч
давл.,
гПа
погр.,
м
25 февраля, чт
чт2523:00−23с81492100 0.2 1017721
02:00−23ссз61293100 0.1 1020713
05:00−24ссз61293100 0.1 1023645
08:00−27ссз489488 0.0 1026143
11:00−24ссз599252 0.0 1029525
14:00−22ссз478893 0.0 1031438
17:00−23зсз228750 0.0 103220
20:00−25зюз33880 0.0 103320
26 февраля, пт
пт2623:00−26юз34830 0.0 103426
02:00−27юз44900 0.0 103340
05:00−29юз44880 0.0 103446
08:00−30ююз34850 0.0 103332
11:00−25ююз47864 0.0 1033205
14:00−22ююз458530 0.0 1031249
17:00−21ю479050 0.0 1030258
20:00−22ю599479 0.0 1030239
27 февраля, сб
сб2723:00−22ю499680 0.1 1029240
02:00−22ю5119689 0.0 1026260
05:00−20ю6109693 0.1 1024327
08:00−18ююв7129599 0.2 1020372
11:00−12ююв81593100 0.6 1017558
14:00−8ю101693100 0.9 1012732
17:00−6ю91593100 2.9 1009877
20:00−2ююз81595100 1.8 1001657
28 февраля, вс
вс2823:00+1зюз8139699 2.1 1000666
02:00−2зюз5138985 0.3 1001431
05:00−4юз6139288 0.3 1001354
08:00−5юз6139145 0.0 1002314
11:00−3юз7129068 0.0 1002594
14:00−1юз71194100 0.2 1002789
17:00−1юз61093100 0.5 1002666
20:00−5зюз61189100 0.6 1004428
1 марта, пн
пн123:00−9зюз61189100 0.7 1007371
02:00−12зюз61091100 0.1 1009249
05:00−13сз4794100 0.2 1011250
08:00−17ссз479691 0.1 1014163
11:00−17ссз359487 0.1 1016241
14:00−15ссз338984 0.0 1018276
17:00−16ссз119385 0.0 101920
20:00−18ююв009582 0.0 102120